EW1198 Weather Reports


time (UTC)temp
F
wind
direction
speed
knots
gust
knots
rain 1hr
in
rain 24hr
in
rain mn
in
humidity
%
barometer
mb
20260903010304 88 0 0.0 0.0 0.00 0.00 0.00 65 1013.0
20260903005804 88 0 0.0 0.0 0.00 0.00 0.00 65 1013.0
20260903005306 88 0 0.0 0.0 0.00 0.00 0.00 64 1013.0
20260903004804 88 261 0.0 0.0 0.00 0.00 0.00 64 1013.1
20260903004305 89 261 0.0 0.0 0.00 0.00 0.00 63 1012.9
20260903002803 89 223 0.0 0.9 0.00 0.00 0.00 62 1012.9
20260903002306 89 216 0.0 0.0 0.00 0.00 0.00 62 1012.9
20260903001803 89 217 0.0 0.0 0.00 0.00 0.00 62 1012.9
20260903001303 90 221 0.0 0.0 0.00 0.00 0.00 61 1012.8
20260903000803 90 221 0.0 0.0 0.00 0.00 0.00 60 1012.9
20260903000304 90 227 0.0 0.0 0.00 0.00 0.00 60 1013.0
20260902235804 91 243 0.0 0.0 0.00 0.00 0.00 59 1012.9
20260902234803 91 245 0.0 1.7 0.00 0.00 0.00 58 1013.0
20260902233803 92 236 0.0 0.9 0.00 0.00 0.00 57 1012.8
20260902233303 92 228 0.0 1.7 0.00 0.00 0.00 57 1012.9
20260902232804 92 333 0.0 0.0 0.00 0.00 0.00 57 1012.9
20260902232306 92 355 0.0 1.7 0.00 0.00 0.00 56 1012.9
20260902231804 92 0 0.0 0.0 0.00 0.00 0.00 56 1012.9
20260902231304 92 246 0.0 0.9 0.00 0.00 0.00 56 1012.8
20260902230804 93 227 0.0 1.7 0.00 0.00 0.00 55 1012.9
20260902230303 93 207 0.0 0.0 0.00 0.00 0.00 55 1012.9
20260902225804 93 358 0.0 0.0 0.00 0.00 0.00 55 1012.8
20260902224804 93 233 0.0 0.9 0.00 0.00 0.00 54 1012.9
20260902224304 93 183 0.0 2.6 0.00 0.00 0.00 54 1013.0
20260902223803 94 258 0.0 2.6 0.00 0.00 0.00 53 1013.1
20260902223304 94 227 0.0 2.6 0.00 0.00 0.00 52 1013.1
20260902222804 94 270 0.9 2.6 0.00 0.00 0.00 51 1013.1
20260902222306 94 262 0.0 1.7 0.00 0.00 0.00 52 1013.1
20260902221804 94 300 0.0 1.7 0.00 0.00 0.00 52 1013.1
20260902221303 94 267 0.0 1.7 0.00 0.00 0.00 51 1013.1
20260902220303 94 273 0.0 2.6 0.00 0.00 0.00 51 1013.2
20260902215804 95 276 0.9 2.6 0.00 0.00 0.00 50 1013.1
20260902215306 95 291 0.0 2.6 0.00 0.00 0.00 50 1013.2
20260902214803 94 230 0.0 2.6 0.00 0.00 0.00 50 1013.2
20260902214304 95 268 0.9 2.6 0.00 0.00 0.00 50 1013.3
20260902213803 95 265 0.9 2.6 0.00 0.00 0.00 50 1013.1
20260902213303 95 265 0.9 2.6 0.00 0.00 0.00 49 1013.1
20260902212805 95 219 0.0 2.6 0.00 0.00 0.00 49 1013.2
20260902212305 95 253 0.0 2.6 0.00 0.00 0.00 49 1013.3
20260902211804 95 295 0.0 2.6 0.00 0.00 0.00 51 1013.4
20260902211304 95 217 0.0 1.7 0.00 0.00 0.00 50 1013.4
20260902210804 96 241 0.0 2.6 0.00 0.00 0.00 49 1013.5
20260902210303 95 239 0.0 2.6 0.00 0.00 0.00 49 1013.6
20260902205804 95 291 0.0 2.6 0.00 0.00 0.00 50 1013.5
20260902204803 95 246 0.9 2.6 0.00 0.00 0.00 49 1013.5
20260902203804 95 241 0.0 1.7 0.00 0.00 0.00 50 1013.6
20260902203304 95 218 0.0 0.9 0.00 0.00 0.00 50 1013.6
20260902202306 96 295 0.0 1.7 0.00 0.00 0.00 49 1013.7
20260902201804 96 283 0.0 1.7 0.00 0.00 0.00 48 1013.6
20260902201304 96 271 0.0 1.7 0.00 0.00 0.00 48 1013.7
20260902200804 95 268 0.0 1.7 0.00 0.00 0.00 50 1013.7
20260902200304 96 228 0.0 1.7 0.00 0.00 0.00 50 1013.8
20260902195306 96 248 0.0 1.7 0.00 0.00 0.00 49 1013.9
20260902194803 96 270 0.9 2.6 0.00 0.00 0.00 48 1014.0
20260902194303 96 329 0.0 0.9 0.00 0.00 0.00 48 1014.0
20260902193804 97 190 0.0 0.9 0.00 0.00 0.00 48 1014.0
20260902193304 97 286 0.0 2.6 0.00 0.00 0.00 47 1014.1
20260902192803 97 238 0.0 2.6 0.00 0.00 0.00 46 1014.1
20260902192306 97 285 0.9 2.6 0.00 0.00 0.00 47 1014.1
20260902191804 96 307 0.9 4.3 0.00 0.00 0.00 47 1014.2
20260902190804 96 290 0.0 1.7 0.00 0.00 0.00 46 1014.3
20260902185804 96 193 0.0 0.9 0.00 0.00 0.00 48 1014.4
20260902185307 97 297 0.0 1.7 0.00 0.00 0.00 48 1014.3
20260902184804 96 261 0.0 1.7 0.00 0.00 0.00 48 1014.4
20260902184304 96 244 0.0 0.9 0.00 0.00 0.00 48 1014.6
20260902183803 96 247 0.0 1.7 0.00 0.00 0.00 48 1014.5
20260902183304 97 236 0.0 2.6 0.00 0.00 0.00 47 1014.6
20260902182803 96 290 0.0 2.6 0.00 0.00 0.00 46 1014.6
20260902181804 95 281 0.9 4.3 0.00 0.00 0.00 48 1014.7
20260902181304 95 243 0.0 2.6 0.00 0.00 0.00 48 1014.7
20260902180304 95 323 0.0 1.7 0.00 0.00 0.00 49 1014.7
20260902175803 94 275 0.0 2.6 0.00 0.00 0.00 50 1015.0
20260902175307 95 227 0.0 2.6 0.00 0.00 0.00 49 1014.9
20260902174804 94 357 0.0 2.6 0.00 0.00 0.00 50 1014.9
20260902174304 94 274 0.0 2.6 0.00 0.00 0.00 51 1015.0
20260902173804 94 336 0.0 2.6 0.00 0.00 0.00 51 1015.1
20260902173303 95 226 0.0 2.6 0.00 0.00 0.00 50 1015.2
20260902172804 95 283 0.9 2.6 0.00 0.00 0.00 51 1015.3
20260902172308 94 283 0.0 0.9 0.00 0.00 0.00 53 1015.4
20260902171804 94 230 0.9 2.6 0.00 0.00 0.00 52 1015.4
20260902171303 94 272 0.0 2.6 0.00 0.00 0.00 52 1015.4
20260902170804 94 322 0.0 1.7 0.00 0.00 0.00 53 1015.4
20260902170304 94 215 0.0 0.9 0.00 0.00 0.00 54 1015.3
20260902165804 95 249 0.0 1.7 0.00 0.00 0.00 53 1015.3
20260902165308 95 301 0.0 2.6 0.00 0.00 0.00 52 1015.4
20260902164804 95 296 0.0 1.7 0.00 0.00 0.00 53 1015.4
20260902164303 94 254 0.0 1.7 0.00 0.00 0.00 56 1015.4
20260902163804 94 330 0.0 0.9 0.00 0.00 0.00 56 1015.3
20260902163304 93 221 0.0 0.0 0.00 0.00 0.00 58 1015.4
20260902162804 93 230 0.0 0.9 0.00 0.00 0.00 57 1015.3
20260902162306 94 237 0.0 0.9 0.00 0.00 0.00 56 1015.4
20260902161804 95 247 0.0 1.7 0.00 0.00 0.00 54 1015.3
20260902161304 94 358 0.0 2.6 0.00 0.00 0.00 53 1015.5
20260902160804 94 302 0.0 1.7 0.00 0.00 0.00 55 1015.5
20260902155803 93 289 0.0 2.6 0.00 0.00 0.00 55 1015.6
20260902155307 94 265 0.0 0.9 0.00 0.00 0.00 56 1015.5
20260902154803 92 212 0.0 0.9 0.00 0.00 0.00 59 1015.5
20260902154304 91 228 0.0 0.0 0.00 0.00 0.00 60 1015.7
20260902153304 91 250 0.0 0.9 0.00 0.00 0.00 60 1015.7
20260902152803 90 227 0.0 2.6 0.00 0.00 0.00 62 1015.7
20260902151804 91 241 0.0 0.0 0.00 0.00 0.00 60 1015.7
20260902150804 91 254 0.0 2.6 0.00 0.00 0.00 59 1015.8
20260902145804 90 297 0.0 2.6 0.00 0.00 0.00 60 1015.7
20260902145306 90 286 0.0 0.9 0.00 0.00 0.00 60 1015.6
20260902144804 89 309 0.0 1.7 0.00 0.00 0.00 60 1015.7
20260902144303 89 273 0.0 2.6 0.00 0.00 0.00 61 1015.7
20260902143303 89 313 0.0 0.9 0.00 0.00 0.00 61 1015.6
20260902142803 89 317 0.0 0.9 0.00 0.00 0.00 62 1015.6
20260902142306 88 318 0.0 1.7 0.00 0.00 0.00 62 1015.6
20260902141804 88 280 0.0 1.7 0.00 0.00 0.00 63 1015.6
20260902141304 88 286 0.0 0.0 0.00 0.00 0.00 63 1015.7
20260902140805 87 286 0.0 2.6 0.00 0.00 0.00 65 1015.7
20260902140304 86 242 0.0 0.0 0.00 0.00 0.00 66 1015.6
20260902135804 85 242 0.0 0.0 0.00 0.00 0.00 68 1015.7
20260902135306 85 242 0.0 0.0 0.00 0.00 0.00 68 1015.7
20260902134804 85 233 0.0 0.9 0.00 0.00 0.00 68 1015.7
20260902134304 85 290 0.0 1.7 0.00 0.00 0.00 69 1015.7
20260902133804 84 283 0.0 0.9 0.00 0.00 0.00 70 1015.8
20260902133304 84 269 0.0 0.0 0.00 0.00 0.00 71 1015.7
20260902132804 83 261 0.0 0.0 0.00 0.00 0.00 71 1015.7
20260902132306 83 263 0.0 0.0 0.00 0.00 0.00 73 1015.8
20260902131804 82 0 0.0 0.0 0.00 0.00 0.00 74 1015.8
20260902131303 82 328 0.0 0.0 0.00 0.00 0.00 75 1015.8
20260902130804 81 224 0.0 0.0 0.00 0.00 0.00 75 1015.7
20260902130304 81 238 0.0 0.0 0.00 0.00 0.00 76 1015.7
20260902125804 81 229 0.0 0.0 0.00 0.00 0.00 77 1015.7
20260902125306 80 239 0.0 0.9 0.00 0.00 0.00 77 1015.7
20260902124304 80 248 0.0 0.9 0.00 0.00 0.00 78 1015.7
20260902123804 80 255 0.0 0.9 0.00 0.00 0.00 79 1015.6
20260902123303 79 272 0.0 2.6 0.00 0.00 0.00 79 1015.6
20260902122803 79 235 0.0 0.0 0.00 0.00 0.00 80 1015.6
20260902121804 79 315 0.0 0.0 0.00 0.00 0.00 81 1015.6
20260902121303 79 227 0.0 0.0 0.00 0.00 0.00 81 1015.5
20260902115804 78 227 0.0 0.0 0.00 0.00 0.00 82 1015.2
20260902115307 78 225 0.0 0.0 0.00 0.00 0.00 83 1015.2
20260902114804 78 225 0.0 0.0 0.00 0.00 0.00 83 1015.1
20260902114303 78 221 0.0 0.0 0.00 0.00 0.00 83 1015.1
20260902113804 78 221 0.0 0.0 0.00 0.00 0.00 83 1015.1
20260902113303 78 221 0.0 0.0 0.00 0.00 0.00 83 1015.1
20260902112803 78 221 0.0 0.0 0.00 0.00 0.00 83 1015.0
20260902112306 78 221 0.0 0.0 0.00 0.00 0.00 83 1015.1
20260902111804 78 221 0.0 0.0 0.00 0.00 0.00 83 1015.1
20260902111304 78 221 0.0 0.0 0.00 0.00 0.00 83 1015.0
20260902110803 78 221 0.0 0.0 0.00 0.00 0.00 83 1015.0
20260902110304 78 221 0.0 0.0 0.00 0.00 0.00 83 1015.0
20260902105803 78 222 0.0 0.0 0.00 0.00 0.00 83 1015.0
20260902105306 78 222 0.0 0.0 0.00 0.00 0.00 82 1014.9
20260902104804 78 222 0.0 0.0 0.00 0.00 0.00 82 1014.9
20260902104304 78 222 0.0 0.0 0.00 0.00 0.00 82 1014.9
20260902103805 78 222 0.0 0.0 0.00 0.00 0.00 82 1014.9
20260902103303 78 223 0.0 0.0 0.00 0.00 0.00 82 1014.8
20260902102804 78 224 0.0 0.0 0.00 0.00 0.00 82 1014.8
20260902101303 78 224 0.0 0.0 0.00 0.00 0.00 82 1014.9
20260902100804 78 224 0.0 0.0 0.00 0.00 0.00 82 1014.9
20260902100303 78 224 0.0 0.0 0.00 0.00 0.00 82 1014.9
20260902095803 78 224 0.0 0.0 0.00 0.00 0.00 82 1014.9
20260902095306 78 224 0.0 0.0 0.00 0.00 0.00 82 1014.8
20260902094804 78 224 0.0 0.0 0.00 0.00 0.00 82 1014.9
20260902094303 78 224 0.0 0.0 0.00 0.00 0.00 82 1014.9
20260902093804 78 225 0.0 0.0 0.00 0.00 0.00 82 1014.9
20260902093303 78 225 0.0 0.0 0.00 0.00 0.00 82 1014.9
20260902092804 78 225 0.0 0.0 0.00 0.00 0.00 82 1014.9
20260902092305 78 225 0.0 0.0 0.00 0.00 0.00 82 1014.7
20260902091804 78 225 0.0 0.0 0.00 0.00 0.00 82 1014.7
20260902091303 78 225 0.0 0.0 0.00 0.00 0.00 82 1014.7
20260902090804 78 225 0.0 0.0 0.00 0.00 0.00 82 1014.8
20260902090304 78 225 0.0 0.0 0.00 0.00 0.00 82 1014.7
20260902085804 78 225 0.0 0.0 0.00 0.00 0.00 82 1014.7
20260902085306 78 225 0.0 0.0 0.00 0.00 0.00 82 1014.6
20260902084804 78 225 0.0 0.0 0.00 0.00 0.00 82 1014.4
20260902084303 78 225 0.0 0.0 0.00 0.00 0.00 82 1014.4
20260902083804 78 225 0.0 0.0 0.00 0.00 0.00 82 1014.3
20260902083304 78 225 0.0 0.0 0.00 0.00 0.00 82 1014.4
20260902082804 78 225 0.0 0.0 0.00 0.00 0.00 82 1014.3
20260902082309 78 225 0.0 0.0 0.00 0.00 0.00 82 1014.4
20260902081803 79 225 0.0 0.0 0.00 0.00 0.00 82 1014.3
20260902081303 79 225 0.0 0.0 0.00 0.00 0.00 82 1014.2
20260902080804 79 225 0.0 0.0 0.00 0.00 0.00 82 1014.3
20260902075804 79 225 0.0 0.0 0.00 0.00 0.00 81 1014.1
20260902075306 79 225 0.0 0.0 0.00 0.00 0.00 81 1014.2
20260902074803 79 225 0.0 0.0 0.00 0.00 0.00 81 1014.1
20260902073805 79 225 0.0 0.0 0.00 0.00 0.00 80 1014.2
20260902073304 79 225 0.0 0.0 0.00 0.00 0.00 80 1014.3
20260902072804 80 225 0.0 0.0 0.00 0.00 0.00 80 1014.2
20260902072309 80 225 0.0 0.0 0.00 0.00 0.00 80 1014.2
20260902071303 80 225 0.0 0.0 0.00 0.00 0.00 79 1014.2
20260902070804 80 225 0.0 0.0 0.00 0.00 0.00 79 1014.2
20260902070304 80 225 0.0 0.0 0.00 0.00 0.00 79 1014.2
20260902065804 80 225 0.0 0.0 0.00 0.00 0.00 79 1014.1
20260902065306 80 225 0.0 0.0 0.00 0.00 0.00 78 1014.2
20260902064804 80 225 0.0 0.0 0.00 0.00 0.00 78 1014.3
20260902063804 80 225 0.0 0.0 0.00 0.00 0.00 78 1014.1
20260902063304 80 225 0.0 0.0 0.00 0.00 0.00 77 1014.1
20260902062803 81 225 0.0 0.0 0.00 0.00 0.00 77 1014.2
20260902062306 81 225 0.0 0.0 0.00 0.00 0.00 77 1014.2
20260902061804 81 225 0.0 0.0 0.00 0.00 0.00 77 1014.2
20260902060804 81 225 0.0 0.0 0.00 0.00 0.00 77 1014.3
20260902060304 81 225 0.0 0.0 0.00 0.00 0.00 77 1014.3
20260902055804 81 225 0.0 0.0 0.00 0.00 0.00 76 1014.3
20260902055306 81 225 0.0 0.0 0.00 0.00 0.00 76 1014.3
20260902054804 81 225 0.0 0.0 0.00 0.00 0.00 76 1014.3
20260902053803 81 225 0.0 0.0 0.00 0.00 0.00 76 1014.3
20260902053304 81 225 0.0 0.0 0.00 0.00 0.00 75 1014.2
20260902052803 81 225 0.0 0.0 0.00 0.00 0.00 75 1014.2
20260902052306 82 225 0.0 0.0 0.00 0.00 0.00 75 1014.2
20260902051804 82 225 0.0 0.0 0.00 0.00 0.00 75 1014.1
20260902051304 82 225 0.0 0.0 0.00 0.00 0.00 74 1014.1
20260902050304 82 225 0.0 0.0 0.00 0.00 0.00 74 1014.1
20260902045804 82 225 0.0 0.0 0.00 0.00 0.00 74 1014.2
20260902044804 82 225 0.0 0.0 0.00 0.00 0.00 73 1014.2
20260902043803 82 225 0.0 0.0 0.00 0.00 0.00 73 1014.1
20260902043304 82 225 0.0 0.0 0.00 0.00 0.00 73 1014.2
20260902042803 82 225 0.0 0.0 0.00 0.00 0.00 73 1014.2
20260902042308 82 225 0.0 0.0 0.00 0.00 0.00 73 1014.3
20260902041303 83 225 0.0 0.0 0.00 0.00 0.00 72 1014.4
20260902040803 83 225 0.0 0.0 0.00 0.00 0.00 72 1014.4
20260902040305 83 225 0.0 0.0 0.00 0.00 0.00 72 1014.3
20260902035804 83 225 0.0 0.0 0.00 0.00 0.00 72 1014.3
20260902035305 83 225 0.0 0.0 0.00 0.00 0.00 72 1014.3
20260902034804 83 225 0.0 0.0 0.00 0.00 0.00 72 1014.3
20260902034303 83 225 0.0 0.0 0.00 0.00 0.00 72 1014.2
20260902033804 83 225 0.0 0.0 0.00 0.00 0.00 72 1014.1
20260902033305 83 225 0.0 0.0 0.00 0.00 0.00 72 1014.2
20260902032804 83 225 0.0 0.0 0.00 0.00 0.00 72 1014.2
20260902032306 84 225 0.0 0.0 0.00 0.00 0.00 72 1014.2
20260902031804 84 225 0.0 0.0 0.00 0.00 0.00 72 1014.2
20260902031303 84 225 0.0 0.0 0.00 0.00 0.00 72 1014.2
20260902030803 84 225 0.0 0.0 0.00 0.00 0.00 71 1014.2
20260902030304 84 225 0.0 0.0 0.00 0.00 0.00 71 1014.2
20260902024804 85 225 0.0 0.0 0.00 0.00 0.00 70 1014.2
20260902024304 85 225 0.0 0.0 0.00 0.00 0.00 70 1014.2
20260902023303 85 225 0.0 0.0 0.00 0.00 0.00 70 1014.2
20260902022306 85 225 0.0 0.0 0.00 0.00 0.00 69 1014.2
20260902021804 85 225 0.0 0.0 0.00 0.00 0.00 68 1014.2
20260902021304 86 225 0.0 0.0 0.00 0.00 0.00 68 1014.1
20260902020803 86 225 0.0 0.0 0.00 0.00 0.00 68 1014.1
20260902020304 86 225 0.0 0.0 0.00 0.00 0.00 68 1014.1
20260902015804 86 225 0.0 0.0 0.00 0.00 0.00 67 1013.9
20260902015305 86 225 0.0 0.0 0.00 0.00 0.00 67 1013.8
20260902013803 87 225 0.0 0.0 0.00 0.00 0.00 67 1013.8
20260902013304 87 225 0.0 0.0 0.00 0.00 0.00 66 1013.7
20260902012803 87 239 0.0 0.0 0.00 0.00 0.00 66 1013.8
20260902012308 88 239 0.0 0.0 0.00 0.00 0.00 65 1013.7
20260902011804 88 239 0.0 0.0 0.00 0.00 0.00 65 1013.7